Find Starlink 32037

NORAD ID: 60283 Int'l Des: 2024-132 Owner: SPXS Country: US Constellation: starlink operational
LEOCIRCULAR

Current View

Loading 3D Globe...

About Starlink 32037

Starlink 32037 (NORAD 60283) is a starlink constellation satellite (v2 mini) launched Jul 28, 2024 by SPXS of US. It operates in LEO, CIRCULAR orbit with a mass of 730.00 kg.

Upcoming Passes

Passes for default location (London). Set your location on the main map for personalized predictions.

Altitude History

Loading altitude history...

Two-Line Element Set

1 60283U 24132F 26237.28091596 .00000445 00000-0 26100-4 0 9997
2 60283 53.1616 348.5507 0001333 93.9795 266.1359 15.31705561117383
Epoch: Aug 25, 2026 • Age: 26 hours

Current Status

Altitude 486.5 km
Apogee / Perigee N/A
Velocity 7.62 km/s
Sub-Earth Point -44.30°S, 174.35°W
Launch Date Jul 28, 2024
Age 2 years
Type internet

Technical Details

Classification Payload
Mass 730.00 kg
Dry Mass 700.00 kg
Total Mass 730.00 kg
Length 0.30 m
Diameter 4.10 m
Span 29.00 m
Shape Box + pan
Manufacturer SPXS
Bus Type Starlink V2M
Phase Status In Orbit
Owner/State SPXS/US

Most Searched